Time,TemperatureF,DewpointF,PressureIn,WindDirection,WindDirectionDegrees,WindSpeedMPH,WindSpeedGustMPH,Humidity,HourlyPrecipIn,Conditions,Clouds,dailyrainin,SoftwareType,DateUTC
2013-01-30 00:02:00,53.1,51.7,29.74,SW,225,0.0,0.0,95,0.00,,,0.81,WUHU216HW,2013-01-30 05:02:00,
2013-01-30 00:03:00,53.3,51.8,29.73,WSW,248,0.0,0.0,95,0.00,,,0.00,WUHU216HW,2013-01-30 05:03:00,
2013-01-30 00:08:00,53.5,52.0,29.74,SW,225,0.0,0.0,95,0.00,,,0.00,WUHU216HW,2013-01-30 05:08:00,
2013-01-30 00:13:00,53.6,52.2,29.73,WSW,248,0.0,0.0,95,0.00,,,0.00,WUHU216HW,2013-01-30 05:13:00,
2013-01-30 00:18:00,53.5,52.0,29.73,SW,225,0.0,0.0,95,0.00,,,0.00,WUHU216HW,2013-01-30 05:18:00,
2013-01-30 00:23:00,53.5,52.0,29.73,SW,225,0.0,0.0,95,0.00,,,0.00,WUHU216HW,2013-01-30 05:23:00,
2013-01-30 00:28:00,53.6,52.2,29.72,South,180,0.0,0.0,95,0.00,,,0.00,WUHU216HW,2013-01-30 05:28:00,
2013-01-30 00:33:00,53.6,52.2,29.72,SSE,158,0.0,0.0,95,0.00,,,0.00,WUHU216HW,2013-01-30 05:33:00,
2013-01-30 00:38:00,53.8,52.4,29.70,SW,225,0.0,0.0,95,0.00,,,0.00,WUHU216HW,2013-01-30 05:38:00,
2013-01-30 00:43:00,53.8,52.4,29.70,WSW,248,0.0,0.0,95,0.00,,,0.00,WUHU216HW,2013-01-30 05:43:00,
2013-01-30 00:48:00,53.8,52.4,29.70,WSW,248,0.0,0.0,95,0.00,,,0.00,WUHU216HW,2013-01-30 05:48:00,
2013-01-30 00:53:00,54.0,52.6,29.69,SE,135,0.0,0.0,95,0.00,,,0.00,WUHU216HW,2013-01-30 05:53:00,
2013-01-30 00:58:00,54.2,52.7,29.68,ESE,113,0.0,0.0,95,0.00,,,0.00,WUHU216HW,2013-01-30 05:58:00,
2013-01-30 01:03:00,54.4,52.7,29.67,SSW,203,0.0,0.0,94,0.00,,,0.00,WUHU216HW,2013-01-30 06:03:00,
2013-01-30 01:08:00,54.4,52.7,29.67,SSW,203,0.0,0.0,94,0.00,,,0.00,WUHU216HW,2013-01-30 06:08:00,
2013-01-30 01:33:00,54.4,52.0,29.65,SW,225,0.0,0.0,92,0.00,,,0.00,WUHU216HW,2013-01-30 06:33:00,
2013-01-30 01:38:00,54.5,52.2,29.65,SSE,158,0.0,0.0,92,0.00,,,0.00,WUHU216HW,2013-01-30 06:38:00,
2013-01-30 01:43:00,54.4,51.8,29.65,SW,225,0.0,0.0,91,0.00,,,0.00,WUHU216HW,2013-01-30 06:43:00,
2013-01-30 01:48:00,54.4,51.5,29.64,SW,225,0.0,0.0,90,0.00,,,0.00,WUHU216HW,2013-01-30 06:48:00,
2013-01-30 01:53:00,54.4,51.2,29.64,NW,315,0.0,0.0,89,0.00,,,0.00,WUHU216HW,2013-01-30 06:53:00,
2013-01-30 01:58:00,54.4,50.9,29.64,SSW,203,0.0,0.0,88,0.00,,,0.00,WUHU216HW,2013-01-30 06:58:00,
2013-01-30 02:03:00,54.4,50.9,29.63,SSW,203,0.0,0.0,88,0.00,,,0.00,WUHU216HW,2013-01-30 07:03:00,
2013-01-30 02:08:00,54.4,50.9,29.63,SW,225,0.0,0.0,88,0.00,,,0.00,WUHU216HW,2013-01-30 07:08:00,
2013-01-30 02:13:00,54.4,50.9,29.62,SW,225,0.0,0.0,88,0.00,,,0.00,WUHU216HW,2013-01-30 07:13:00,
2013-01-30 02:18:00,54.4,50.9,29.62,SW,225,0.0,0.0,88,0.00,,,0.00,WUHU216HW,2013-01-30 07:18:00,
2013-01-30 02:23:00,54.5,51.0,29.62,SW,225,0.0,0.0,88,0.00,,,0.00,WUHU216HW,2013-01-30 07:23:00,
2013-01-30 02:28:00,54.5,50.8,29.62,WSW,248,0.0,0.0,87,0.00,,,0.00,WUHU216HW,2013-01-30 07:28:00,
2013-01-30 02:33:00,54.4,50.9,29.62,SW,225,0.0,0.0,88,0.00,,,0.00,WUHU216HW,2013-01-30 07:33:00,
2013-01-30 02:38:00,54.4,50.6,29.62,SE,135,0.0,0.0,87,0.00,,,0.00,WUHU216HW,2013-01-30 07:38:00,
2013-01-30 02:43:00,54.4,50.9,29.62,SSW,203,0.0,0.0,88,0.00,,,0.00,WUHU216HW,2013-01-30 07:43:00,
2013-01-30 02:48:00,54.4,50.9,29.61,SW,225,0.0,0.0,88,0.00,,,0.00,WUHU216HW,2013-01-30 07:48:00,
2013-01-30 02:53:00,54.4,50.6,29.61,SSE,158,0.0,0.0,87,0.00,,,0.00,WUHU216HW,2013-01-30 07:53:00,
2013-01-30 02:58:00,54.4,50.9,29.61,SW,225,0.0,0.0,88,0.00,,,0.00,WUHU216HW,2013-01-30 07:58:00,
2013-01-30 03:03:00,54.4,50.6,29.61,WSW,248,0.0,0.0,87,0.00,,,0.00,WUHU216HW,2013-01-30 08:03:00,
2013-01-30 03:08:00,54.4,50.6,29.61,WSW,248,0.0,0.0,87,0.00,,,0.00,WUHU216HW,2013-01-30 08:08:00,
2013-01-30 03:30:00,54.0,50.5,29.58,SSW,203,0.0,0.0,88,0.00,,,0.00,WUHU216HW,2013-01-30 08:30:00,
2013-01-30 03:35:00,54.2,50.7,29.57,SSE,158,0.0,0.0,88,0.01,,,0.01,WUHU216HW,2013-01-30 08:35:00,
2013-01-30 03:40:00,54.4,50.6,29.57,SW,225,0.0,0.0,87,0.01,,,0.01,WUHU216HW,2013-01-30 08:40:00,
2013-01-30 03:45:00,54.5,50.4,29.57,WSW,248,0.0,0.0,86,0.01,,,0.01,WUHU216HW,2013-01-30 08:45:00,
2013-01-30 03:50:00,54.7,50.6,29.56,SW,225,0.0,0.0,86,0.01,,,0.01,WUHU216HW,2013-01-30 08:50:00,
2013-01-30 03:55:00,54.9,50.8,29.56,SW,225,0.0,0.0,86,0.01,,,0.01,WUHU216HW,2013-01-30 08:55:00,
2013-01-30 04:00:00,55.1,51.0,29.55,SW,225,0.0,0.0,86,0.01,,,0.01,WUHU216HW,2013-01-30 09:00:00,
2013-01-30 04:05:00,55.3,50.8,29.55,SW,225,0.0,0.0,85,0.01,,,0.01,WUHU216HW,2013-01-30 09:05:00,
2013-01-30 04:10:00,55.3,50.8,29.55,SE,135,0.0,0.0,85,0.01,,,0.01,WUHU216HW,2013-01-30 09:10:00,
2013-01-30 04:15:00,55.4,50.6,29.55,SSE,158,0.0,0.0,84,0.01,,,0.01,WUHU216HW,2013-01-30 09:15:00,
2013-01-30 04:20:00,55.6,50.8,29.55,SW,225,0.0,0.0,84,0.01,,,0.01,WUHU216HW,2013-01-30 09:20:00,
2013-01-30 04:25:00,55.8,50.7,29.54,SSW,203,0.0,0.0,83,0.01,,,0.01,WUHU216HW,2013-01-30 09:25:00,
2013-01-30 04:30:00,55.8,50.9,29.54,SW,225,0.0,0.0,84,0.00,,,0.01,WUHU216HW,2013-01-30 09:30:00,
2013-01-30 04:35:00,55.8,50.9,29.54,SW,225,0.0,0.0,84,0.00,,,0.01,WUHU216HW,2013-01-30 09:35:00,
2013-01-30 04:40:00,55.8,50.7,29.54,ESE,113,0.0,0.0,83,0.00,,,0.01,WUHU216HW,2013-01-30 09:40:00,
2013-01-30 04:45:00,55.8,50.7,29.53,SW,225,0.0,0.0,83,0.00,,,0.01,WUHU216HW,2013-01-30 09:45:00,
2013-01-30 04:50:00,55.8,50.3,29.53,SW,225,0.0,0.0,82,0.00,,,0.01,WUHU216HW,2013-01-30 09:50:00,
2013-01-30 04:55:00,56.2,50.7,29.52,SW,225,0.0,0.0,82,0.00,,,0.01,WUHU216HW,2013-01-30 09:55:00,
2013-01-30 05:00:00,56.5,51.0,29.51,SW,225,0.0,0.0,82,0.00,,,0.01,WUHU216HW,2013-01-30 10:00:00,
2013-01-30 05:05:00,56.7,51.0,29.51,ESE,113,0.0,0.0,81,0.00,,,0.01,WUHU216HW,2013-01-30 10:05:00,
2013-01-30 05:10:00,56.9,51.1,29.50,SW,225,0.0,0.0,81,0.00,,,0.01,WUHU216HW,2013-01-30 10:10:00,
2013-01-30 05:15:00,56.9,51.1,29.50,SSW,203,0.0,0.0,81,0.00,,,0.01,WUHU216HW,2013-01-30 10:15:00,
2013-01-30 05:20:00,56.9,50.8,29.50,SW,225,0.0,0.0,80,0.00,,,0.01,WUHU216HW,2013-01-30 10:20:00,
2013-01-30 05:25:00,56.9,50.8,29.50,WNW,293,0.0,0.0,80,0.00,,,0.01,WUHU216HW,2013-01-30 10:25:00,
2013-01-30 05:30:00,56.9,50.8,29.49,SSW,203,0.0,0.0,80,0.00,,,0.01,WUHU216HW,2013-01-30 10:30:00,
2013-01-30 05:35:00,56.7,50.6,29.49,South,180,0.0,0.0,80,0.00,,,0.01,WUHU216HW,2013-01-30 10:35:00,
2013-01-30 05:40:00,56.7,50.2,29.48,SSW,203,0.0,0.0,79,0.00,,,0.01,WUHU216HW,2013-01-30 10:40:00,
2013-01-30 05:45:00,56.7,50.6,29.47,SW,225,0.0,0.0,80,0.00,,,0.01,WUHU216HW,2013-01-30 10:45:00,
2013-01-30 05:50:00,56.5,50.4,29.47,SSW,203,0.0,0.0,80,0.00,,,0.01,WUHU216HW,2013-01-30 10:50:00,
2013-01-30 05:55:00,56.3,50.2,29.47,SSW,203,0.0,0.0,80,0.00,,,0.01,WUHU216HW,2013-01-30 10:55:00,
2013-01-30 06:00:00,56.2,50.0,29.47,SW,225,0.0,0.0,80,0.00,,,0.01,WUHU216HW,2013-01-30 11:00:00,
2013-01-30 06:05:00,56.0,49.9,29.47,SSE,158,0.0,0.0,80,0.00,,,0.01,WUHU216HW,2013-01-30 11:05:00,
2013-01-30 06:10:00,56.2,50.0,29.47,SSW,203,0.0,0.0,80,0.00,,,0.01,WUHU216HW,2013-01-30 11:10:00,
2013-01-30 06:15:00,56.3,50.2,29.47,SSW,203,0.0,0.0,80,0.00,,,0.01,WUHU216HW,2013-01-30 11:15:00,
2013-01-30 06:20:00,56.3,50.2,29.47,WSW,248,0.0,0.0,80,0.00,,,0.01,WUHU216HW,2013-01-30 11:20:00,
2013-01-30 06:25:00,56.5,50.0,29.46,WSW,248,0.0,0.0,79,0.00,,,0.01,WUHU216HW,2013-01-30 11:25:00,
2013-01-30 06:30:00,56.5,50.0,29.46,WSW,248,0.0,0.0,79,0.00,,,0.01,WUHU216HW,2013-01-30 11:30:00,
2013-01-30 06:35:00,56.7,50.2,29.46,SSW,203,0.0,0.0,79,0.00,,,0.01,WUHU216HW,2013-01-30 11:35:00,
2013-01-30 06:40:00,56.7,50.2,29.47,SW,225,0.0,0.0,79,0.00,,,0.01,WUHU216HW,2013-01-30 11:40:00,
2013-01-30 06:45:00,56.9,50.4,29.46,SW,225,0.0,0.0,79,0.00,,,0.01,WUHU216HW,2013-01-30 11:45:00,
2013-01-30 06:50:00,57.2,50.8,29.46,SSW,203,0.0,0.0,79,0.00,,,0.01,WUHU216HW,2013-01-30 11:50:00,
2013-01-30 06:55:00,57.4,50.6,29.45,SSE,158,0.0,0.0,78,0.00,,,0.01,WUHU216HW,2013-01-30 11:55:00,
2013-01-30 07:00:00,57.8,50.6,29.45,SW,225,0.0,0.0,77,0.00,,,0.01,WUHU216HW,2013-01-30 12:00:00,
2013-01-30 07:05:00,57.8,50.6,29.45,SSW,203,0.0,0.0,77,0.00,,,0.01,WUHU216HW,2013-01-30 12:05:00,
2013-01-30 07:10:00,58.0,50.4,29.45,SW,225,0.0,0.0,76,0.00,,,0.01,WUHU216HW,2013-01-30 12:10:00,
2013-01-30 07:15:00,58.1,50.6,29.44,West,270,0.0,0.0,76,0.00,,,0.01,WUHU216HW,2013-01-30 12:15:00,
2013-01-30 07:20:00,58.3,50.4,29.44,WSW,248,0.0,0.0,75,0.00,,,0.01,WUHU216HW,2013-01-30 12:20:00,
2013-01-30 07:25:00,58.7,50.8,29.44,SW,225,0.0,0.0,75,0.00,,,0.01,WUHU216HW,2013-01-30 12:25:00,
2013-01-30 07:30:00,58.9,50.6,29.44,SSW,203,0.0,0.0,74,0.00,,,0.01,WUHU216HW,2013-01-30 12:30:00,
2013-01-30 07:35:00,59.0,50.8,29.44,SW,225,0.0,0.0,74,0.00,,,0.01,WUHU216HW,2013-01-30 12:35:00,
2013-01-30 07:40:00,59.2,50.9,29.44,SW,225,0.0,0.0,74,0.00,,,0.01,WUHU216HW,2013-01-30 12:40:00,
2013-01-30 07:45:00,59.4,51.1,29.43,South,180,0.0,0.0,74,0.00,,,0.01,WUHU216HW,2013-01-30 12:45:00,
2013-01-30 07:50:00,59.4,51.1,29.43,SW,225,0.0,0.0,74,0.00,,,0.01,WUHU216HW,2013-01-30 12:50:00,
2013-01-30 07:55:00,59.4,51.1,29.43,South,180,0.0,0.0,74,0.00,,,0.01,WUHU216HW,2013-01-30 12:55:00,
2013-01-30 08:00:00,59.6,51.3,29.43,SW,225,0.0,0.0,74,0.00,,,0.01,WUHU216HW,2013-01-30 13:00:00,
2013-01-30 08:05:00,59.8,51.5,29.43,West,270,0.0,0.0,74,0.00,,,0.01,WUHU216HW,2013-01-30 13:05:00,
2013-01-30 08:10:00,59.8,51.1,29.43,SSW,203,0.0,0.0,73,0.00,,,0.01,WUHU216HW,2013-01-30 13:10:00,
2013-01-30 08:15:00,59.8,51.5,29.43,WSW,248,0.0,0.0,74,0.00,,,0.01,WUHU216HW,2013-01-30 13:15:00,
2013-01-30 08:20:00,59.8,51.1,29.42,WSW,248,0.0,0.0,73,0.00,,,0.01,WUHU216HW,2013-01-30 13:20:00,
2013-01-30 08:25:00,59.8,51.1,29.42,SE,135,0.0,0.0,73,0.00,,,0.01,WUHU216HW,2013-01-30 13:25:00,
2013-01-30 08:30:00,59.8,51.1,29.42,SW,225,0.0,0.0,73,0.00,,,0.01,WUHU216HW,2013-01-30 13:30:00,
2013-01-30 08:35:00,59.6,50.9,29.41,SSE,158,0.0,0.0,73,0.00,,,0.01,WUHU216HW,2013-01-30 13:35:00,
2013-01-30 08:40:00,59.6,50.9,29.40,WSW,248,0.0,0.0,73,0.00,,,0.01,WUHU216HW,2013-01-30 13:40:00,
2013-01-30 08:45:00,59.6,50.9,29.40,South,180,0.0,0.0,73,0.00,,,0.01,WUHU216HW,2013-01-30 13:45:00,
2013-01-30 08:50:00,59.8,51.1,29.39,SW,225,0.0,0.0,73,0.00,,,0.01,WUHU216HW,2013-01-30 13:50:00,
2013-01-30 08:55:00,59.8,51.1,29.39,SE,135,0.0,0.0,73,0.00,,,0.01,WUHU216HW,2013-01-30 13:55:00,
2013-01-30 09:00:00,60.1,51.5,29.38,SW,225,0.0,0.0,73,0.00,,,0.01,WUHU216HW,2013-01-30 14:00:00,
2013-01-30 09:05:00,60.7,52.0,29.39,SSW,203,0.0,0.0,73,0.00,,,0.01,WUHU216HW,2013-01-30 14:05:00,
2013-01-30 09:10:00,60.8,51.8,29.38,SSE,158,0.0,0.0,72,0.00,,,0.01,WUHU216HW,2013-01-30 14:10:00,
2013-01-30 09:15:00,61.0,52.4,29.38,West,270,0.0,0.0,73,0.00,,,0.01,WUHU216HW,2013-01-30 14:15:00,
2013-01-30 09:20:00,61.0,52.4,29.38,WSW,248,0.0,0.0,73,0.00,,,0.01,WUHU216HW,2013-01-30 14:20:00,
2013-01-30 09:25:00,60.8,51.8,29.38,SW,225,0.0,0.0,72,0.00,,,0.01,WUHU216HW,2013-01-30 14:25:00,
2013-01-30 09:30:00,61.0,52.4,29.38,SSW,203,0.0,0.0,73,0.00,,,0.01,WUHU216HW,2013-01-30 14:30:00,
2013-01-30 09:35:00,61.2,52.6,29.39,SW,225,0.0,0.0,73,0.00,,,0.01,WUHU216HW,2013-01-30 14:35:00,
2013-01-30 09:40:00,60.8,52.9,29.39,SSW,203,0.0,0.0,75,0.01,,,0.02,WUHU216HW,2013-01-30 14:40:00,
2013-01-30 09:45:00,60.3,53.5,29.38,SW,225,0.0,0.0,78,0.02,,,0.03,WUHU216HW,2013-01-30 14:45:00,
2013-01-30 09:50:00,59.8,53.3,29.37,SSW,203,0.0,0.0,79,0.03,,,0.03,WUHU216HW,2013-01-30 14:50:00,
2013-01-30 09:55:00,59.4,53.7,29.37,SW,225,0.0,0.0,81,0.03,,,0.05,WUHU216HW,2013-01-30 14:55:00,
2013-01-30 10:00:00,59.0,53.3,29.37,SW,225,0.0,0.0,81,0.03,,,0.05,WUHU216HW,2013-01-30 15:00:00,
2013-01-30 10:05:00,59.0,53.9,29.37,WSW,248,0.0,0.0,83,0.04,,,0.05,WUHU216HW,2013-01-30 15:05:00,
2013-01-30 10:10:00,58.7,53.6,29.36,SSW,203,0.0,0.0,83,0.05,,,0.06,WUHU216HW,2013-01-30 15:10:00,
2013-01-30 10:15:00,58.7,53.6,29.36,SW,225,0.0,0.0,83,0.06,,,0.06,WUHU216HW,2013-01-30 15:15:00,
2013-01-30 10:20:00,58.3,53.5,29.37,South,180,0.0,0.0,84,0.09,,,0.10,WUHU216HW,2013-01-30 15:20:00,
2013-01-30 10:25:00,58.3,53.8,29.38,WSW,248,0.0,0.0,85,0.11,,,0.12,WUHU216HW,2013-01-30 15:25:00,
2013-01-30 10:30:00,58.1,54.3,29.42,SW,225,0.0,0.0,87,0.13,,,0.14,WUHU216HW,2013-01-30 15:30:00,
2013-01-30 10:35:00,57.8,53.9,29.42,SW,225,0.0,0.0,87,0.14,,,0.16,WUHU216HW,2013-01-30 15:35:00,
2013-01-30 10:40:00,57.2,53.1,29.41,SW,225,0.0,0.0,86,0.13,,,0.17,WUHU216HW,2013-01-30 15:40:00,
2013-01-30 10:45:00,57.1,52.9,29.42,SW,225,0.0,0.0,86,0.13,,,0.17,WUHU216HW,2013-01-30 15:45:00,
2013-01-30 10:50:00,56.7,52.8,29.41,NW,315,0.0,0.0,87,0.12,,,0.17,WUHU216HW,2013-01-30 15:50:00,
2013-01-30 10:55:00,56.7,52.8,29.39,SSE,158,0.0,0.0,87,0.13,,,0.18,WUHU216HW,2013-01-30 15:55:00,
2013-01-30 11:00:00,56.5,52.7,29.38,SW,225,0.0,0.0,87,0.13,,,0.18,WUHU216HW,2013-01-30 16:00:00,
2013-01-30 11:05:00,56.7,53.2,29.38,SW,225,0.0,0.0,88,0.11,,,0.18,WUHU216HW,2013-01-30 16:05:00,
2013-01-30 11:10:00,56.7,53.2,29.38,SW,225,0.0,0.0,88,0.11,,,0.18,WUHU216HW,2013-01-30 16:10:00,
2013-01-30 11:15:00,56.7,53.2,29.39,SW,225,0.0,0.0,88,0.10,,,0.18,WUHU216HW,2013-01-30 16:15:00,
2013-01-30 11:20:00,56.7,53.2,29.39,SW,225,0.0,0.0,88,0.06,,,0.18,WUHU216HW,2013-01-30 16:20:00,
2013-01-30 11:25:00,56.7,53.2,29.40,SSW,203,0.0,0.0,88,0.04,,,0.18,WUHU216HW,2013-01-30 16:25:00,
2013-01-30 11:30:00,56.7,53.2,29.40,WSW,248,0.0,0.0,88,0.02,,,0.18,WUHU216HW,2013-01-30 16:30:00,
2013-01-30 11:35:00,56.5,53.3,29.40,SSW,203,0.0,0.0,89,0.02,,,0.18,WUHU216HW,2013-01-30 16:35:00,
2013-01-30 11:40:00,56.5,53.3,29.40,SW,225,0.0,0.0,89,0.02,,,0.19,WUHU216HW,2013-01-30 16:40:00,
2013-01-30 11:45:00,56.5,53.3,29.39,SW,225,0.0,0.0,89,0.02,,,0.19,WUHU216HW,2013-01-30 16:45:00,
2013-01-30 11:50:00,56.3,52.8,29.38,SW,225,0.0,0.0,88,0.02,,,0.19,WUHU216HW,2013-01-30 16:50:00,
2013-01-30 11:55:00,56.2,52.9,29.35,SE,135,0.0,0.0,89,0.01,,,0.19,WUHU216HW,2013-01-30 16:55:00,
2013-01-30 12:00:00,56.0,52.7,29.34,South,180,0.0,0.0,89,0.01,,,0.19,WUHU216HW,2013-01-30 17:00:00,
2013-01-30 12:05:00,55.8,52.6,29.33,NW,315,0.0,0.0,89,0.01,,,0.19,WUHU216HW,2013-01-30 17:05:00,
2013-01-30 12:10:00,55.6,52.1,29.34,SSW,203,0.0,0.0,88,0.01,,,0.19,WUHU216HW,2013-01-30 17:10:00,
2013-01-30 12:15:00,55.4,51.9,29.34,SW,225,0.0,0.0,88,0.01,,,0.19,WUHU216HW,2013-01-30 17:15:00,
2013-01-30 12:20:00,55.8,52.6,29.35,West,270,0.0,0.0,89,0.01,,,0.19,WUHU216HW,2013-01-30 17:20:00,
2013-01-30 12:25:00,56.2,53.3,29.35,SW,225,0.0,0.0,90,0.01,,,0.19,WUHU216HW,2013-01-30 17:25:00,
2013-01-30 12:30:00,56.5,53.6,29.34,SW,225,0.0,0.0,90,0.01,,,0.19,WUHU216HW,2013-01-30 17:30:00,
2013-01-30 12:35:00,56.5,53.6,29.31,SSW,203,0.0,0.0,90,0.01,,,0.19,WUHU216HW,2013-01-30 17:35:00,
2013-01-30 12:40:00,57.1,54.2,29.31,SE,135,0.0,0.0,90,0.00,,,0.19,WUHU216HW,2013-01-30 17:40:00,
2013-01-30 12:45:00,57.4,54.2,29.31,SW,225,0.0,0.0,89,0.00,,,0.19,WUHU216HW,2013-01-30 17:45:00,
2013-01-30 12:50:00,58.0,54.7,29.33,SW,225,0.0,0.0,89,0.00,,,0.19,WUHU216HW,2013-01-30 17:50:00,
2013-01-30 12:55:00,58.1,54.3,29.33,WSW,248,0.0,0.0,87,0.00,,,0.19,WUHU216HW,2013-01-30 17:55:00,
2013-01-30 13:00:00,58.5,54.6,29.33,WNW,293,0.0,0.0,87,0.00,,,0.19,WUHU216HW,2013-01-30 18:00:00,
2013-01-30 13:05:00,58.7,54.8,29.33,SW,225,0.0,0.0,87,0.00,,,0.19,WUHU216HW,2013-01-30 18:05:00,
2013-01-30 13:10:00,58.9,54.7,29.33,WSW,248,0.0,0.0,86,0.00,,,0.19,WUHU216HW,2013-01-30 18:10:00,
2013-01-30 13:15:00,59.0,54.5,29.32,SW,225,0.0,0.0,85,0.00,,,0.19,WUHU216HW,2013-01-30 18:15:00,
2013-01-30 13:20:00,59.0,54.2,29.32,SSW,203,0.0,0.0,84,0.00,,,0.19,WUHU216HW,2013-01-30 18:20:00,
2013-01-30 13:25:00,58.9,54.0,29.33,SW,225,0.0,0.0,84,0.00,,,0.19,WUHU216HW,2013-01-30 18:25:00,
2013-01-30 13:30:00,58.7,53.6,29.33,SE,135,0.0,0.0,83,0.00,,,0.19,WUHU216HW,2013-01-30 18:30:00,
2013-01-30 13:35:00,58.3,53.2,29.32,SSE,158,0.0,0.0,83,0.00,,,0.19,WUHU216HW,2013-01-30 18:35:00,
2013-01-30 13:40:00,58.1,53.0,29.32,SW,225,0.0,0.0,83,0.00,,,0.19,WUHU216HW,2013-01-30 18:40:00,
2013-01-30 13:45:00,58.1,53.3,29.31,South,180,0.0,0.0,84,0.00,,,0.19,WUHU216HW,2013-01-30 18:45:00,
2013-01-30 13:50:00,58.1,53.3,29.31,WNW,293,0.0,0.0,84,0.00,,,0.19,WUHU216HW,2013-01-30 18:50:00,
2013-01-30 13:55:00,58.1,53.0,29.30,SSW,203,0.0,0.0,83,0.00,,,0.19,WUHU216HW,2013-01-30 18:55:00,
2013-01-30 14:00:00,58.1,53.0,29.30,WSW,248,0.0,0.0,83,0.00,,,0.19,WUHU216HW,2013-01-30 19:00:00,
2013-01-30 14:05:00,58.3,53.2,29.29,SSE,158,0.0,0.0,83,0.00,,,0.19,WUHU216HW,2013-01-30 19:05:00,
2013-01-30 14:10:00,58.3,53.2,29.28,SW,225,0.0,0.0,83,0.00,,,0.19,WUHU216HW,2013-01-30 19:10:00,
2013-01-30 14:16:00,58.3,52.8,29.28,SW,225,0.0,0.0,82,0.00,,,0.19,WUHU216HW,2013-01-30 19:16:00,
2013-01-30 14:20:00,58.3,52.8,29.26,SE,135,0.0,0.0,82,0.00,,,0.19,WUHU216HW,2013-01-30 19:20:00,
2013-01-30 14:25:00,58.3,52.8,29.27,SSW,203,0.0,0.0,82,0.00,,,0.19,WUHU216HW,2013-01-30 19:25:00,
2013-01-30 14:30:00,58.3,52.6,29.27,WSW,248,0.0,0.0,81,0.00,,,0.19,WUHU216HW,2013-01-30 19:30:00,
2013-01-30 14:35:00,58.3,52.2,29.29,SW,225,0.0,0.0,80,0.00,,,0.19,WUHU216HW,2013-01-30 19:35:00,
2013-01-30 14:40:00,58.1,52.0,29.32,WSW,248,0.0,0.0,80,0.00,,,0.19,WUHU216HW,2013-01-30 19:40:00,
2013-01-30 14:45:00,58.0,51.5,29.34,West,270,0.0,0.0,79,0.00,,,0.19,WUHU216HW,2013-01-30 19:45:00,
2013-01-30 14:50:00,57.8,51.7,29.34,WNW,293,0.0,0.0,80,0.00,,,0.19,WUHU216HW,2013-01-30 19:50:00,
2013-01-30 14:55:00,57.6,51.1,29.34,West,270,0.0,0.0,79,0.00,,,0.19,WUHU216HW,2013-01-30 19:55:00,
2013-01-30 15:00:00,57.2,50.8,29.34,WSW,248,0.0,0.0,79,0.00,,,0.19,WUHU216HW,2013-01-30 20:00:00,
2013-01-30 15:06:00,57.1,50.2,29.34,West,270,0.0,0.0,78,0.00,,,0.19,WUHU216HW,2013-01-30 20:06:00,
2013-01-30 15:10:00,56.9,50.0,29.35,SW,225,0.0,0.0,78,0.00,,,0.19,WUHU216HW,2013-01-30 20:10:00,
2013-01-30 15:16:00,56.7,50.2,29.36,WSW,248,0.0,0.0,79,0.00,,,0.19,WUHU216HW,2013-01-30 20:16:00,
2013-01-30 15:21:00,56.5,50.0,29.37,SW,225,0.0,0.0,79,0.00,,,0.19,WUHU216HW,2013-01-30 20:21:00,
2013-01-30 15:26:00,56.3,49.9,29.36,WSW,248,0.0,0.0,79,0.00,,,0.19,WUHU216HW,2013-01-30 20:26:00,
2013-01-30 15:31:00,56.2,49.7,29.35,SW,225,0.0,0.0,79,0.00,,,0.19,WUHU216HW,2013-01-30 20:31:00,
2013-01-30 15:36:00,56.2,50.0,29.34,WSW,248,0.0,0.0,80,0.00,,,0.19,WUHU216HW,2013-01-30 20:36:00,
2013-01-30 15:41:00,56.0,49.9,29.35,SW,225,0.0,0.0,80,0.00,,,0.19,WUHU216HW,2013-01-30 20:41:00,
2013-01-30 15:46:00,55.8,49.7,29.34,SSW,203,0.0,0.0,80,0.00,,,0.19,WUHU216HW,2013-01-30 20:46:00,
2013-01-30 15:51:00,55.8,49.7,29.34,SW,225,0.0,0.0,80,0.00,,,0.19,WUHU216HW,2013-01-30 20:51:00,
2013-01-30 15:56:00,55.6,49.9,29.34,SW,225,0.0,0.0,81,0.00,,,0.19,WUHU216HW,2013-01-30 20:56:00,
2013-01-30 16:01:00,55.4,49.3,29.33,SW,225,0.0,0.0,80,0.00,,,0.19,WUHU216HW,2013-01-30 21:01:00,
2013-01-30 16:06:00,55.4,49.3,29.33,SW,225,0.0,0.0,80,0.00,,,0.19,WUHU216HW,2013-01-30 21:06:00,
2013-01-30 16:11:00,55.3,49.1,29.34,WSW,248,0.0,0.0,80,0.00,,,0.19,WUHU216HW,2013-01-30 21:11:00,
2013-01-30 16:16:00,55.3,49.1,29.34,SW,225,0.0,0.0,80,0.00,,,0.19,WUHU216HW,2013-01-30 21:16:00,
2013-01-30 16:21:00,55.1,49.0,29.34,SW,225,0.0,0.0,80,0.00,,,0.19,WUHU216HW,2013-01-30 21:21:00,
2013-01-30 16:26:00,55.1,49.0,29.33,WSW,248,0.0,0.0,80,0.00,,,0.19,WUHU216HW,2013-01-30 21:26:00,
2013-01-30 16:31:00,55.1,49.0,29.33,WSW,248,0.0,0.0,80,0.00,,,0.19,WUHU216HW,2013-01-30 21:31:00,
2013-01-30 16:36:00,55.1,49.0,29.34,SSW,203,0.0,0.0,80,0.00,,,0.19,WUHU216HW,2013-01-30 21:36:00,
2013-01-30 16:41:00,54.9,48.9,29.34,West,270,0.0,0.0,80,0.00,,,0.19,WUHU216HW,2013-01-30 21:41:00,
2013-01-30 16:46:00,54.7,48.7,29.34,West,270,0.0,0.0,80,0.00,,,0.19,WUHU216HW,2013-01-30 21:46:00,
2013-01-30 16:51:00,54.5,48.9,29.33,WSW,248,0.0,0.0,81,0.00,,,0.19,WUHU216HW,2013-01-30 21:51:00,
2013-01-30 16:56:00,54.4,48.7,29.33,WSW,248,0.0,0.0,81,0.00,,,0.19,WUHU216HW,2013-01-30 21:56:00,
2013-01-30 17:01:00,54.2,48.5,29.33,SW,225,0.0,0.0,81,0.00,,,0.19,WUHU216HW,2013-01-30 22:01:00,
2013-01-30 17:06:00,53.8,48.5,29.33,WSW,248,0.0,0.0,82,0.00,,,0.19,WUHU216HW,2013-01-30 22:06:00,
2013-01-30 17:11:00,53.6,48.3,29.33,SW,225,0.0,0.0,82,0.00,,,0.19,WUHU216HW,2013-01-30 22:11:00,
2013-01-30 17:16:00,53.6,48.6,29.32,WSW,248,0.0,0.0,83,0.00,,,0.19,WUHU216HW,2013-01-30 22:16:00,
2013-01-30 17:21:00,53.6,48.6,29.33,West,270,0.0,0.0,83,0.00,,,0.19,WUHU216HW,2013-01-30 22:21:00,
2013-01-30 17:26:00,53.6,49.0,29.33,SSW,203,0.0,0.0,84,0.00,,,0.19,WUHU216HW,2013-01-30 22:26:00,
2013-01-30 17:31:00,53.6,49.0,29.33,SSW,203,0.0,0.0,84,0.00,,,0.19,WUHU216HW,2013-01-30 22:31:00,
2013-01-30 17:36:00,53.6,49.0,29.33,WSW,248,0.0,0.0,84,0.00,,,0.19,WUHU216HW,2013-01-30 22:36:00,
2013-01-30 17:41:00,53.6,49.0,29.32,SSW,203,0.0,0.0,84,0.00,,,0.19,WUHU216HW,2013-01-30 22:41:00,
2013-01-30 17:46:00,53.6,49.0,29.32,West,270,0.0,0.0,84,0.00,,,0.19,WUHU216HW,2013-01-30 22:46:00,
2013-01-30 17:51:00,53.8,49.1,29.31,SW,225,0.0,0.0,84,0.00,,,0.19,WUHU216HW,2013-01-30 22:51:00,
2013-01-30 17:56:00,53.8,49.1,29.29,SW,225,0.0,0.0,84,0.00,,,0.19,WUHU216HW,2013-01-30 22:56:00,
2013-01-30 18:01:00,54.0,49.2,29.29,WSW,248,0.0,0.0,84,0.00,,,0.19,WUHU216HW,2013-01-30 23:01:00,
2013-01-30 18:06:00,54.0,49.2,29.29,SSW,203,0.0,0.0,84,0.00,,,0.19,WUHU216HW,2013-01-30 23:06:00,
2013-01-30 18:11:00,54.0,49.2,29.29,SSE,158,0.0,0.0,84,0.00,,,0.19,WUHU216HW,2013-01-30 23:11:00,
2013-01-30 18:16:00,54.0,49.2,29.28,SW,225,0.0,0.0,84,0.00,,,0.19,WUHU216HW,2013-01-30 23:16:00,
2013-01-30 18:21:00,54.2,49.4,29.28,SSW,203,0.0,0.0,84,0.00,,,0.19,WUHU216HW,2013-01-30 23:21:00,
2013-01-30 18:26:00,54.2,49.4,29.29,WSW,248,0.0,0.0,84,0.00,,,0.19,WUHU216HW,2013-01-30 23:26:00,
2013-01-30 18:31:00,54.2,49.4,29.29,SW,225,0.0,0.0,84,0.00,,,0.19,WUHU216HW,2013-01-30 23:31:00,
2013-01-30 18:36:00,54.4,49.6,29.29,SW,225,0.0,0.0,84,0.00,,,0.19,WUHU216HW,2013-01-30 23:36:00,
2013-01-30 18:39:00,54.4,49.6,29.29,SW,225,0.0,0.0,84,0.00,,,0.19,WUHU216HW,2013-01-30 23:39:00,
2013-01-30 18:45:00,54.5,49.8,29.29,SW,225,0.0,0.0,84,0.00,,,0.19,WUHU216HW,2013-01-30 23:45:00,
2013-01-30 18:55:00,54.5,49.4,29.26,WSW,248,0.0,0.0,83,0.00,,,0.19,WUHU216HW,2013-01-30 23:55:00,
2013-01-30 19:00:00,54.4,49.3,29.27,SW,225,0.0,0.0,83,0.00,,,0.19,WUHU216HW,2013-01-31 00:00:00,
2013-01-30 19:05:00,54.4,49.3,29.26,SSW,203,0.0,0.0,83,0.00,,,0.19,WUHU216HW,2013-01-31 00:05:00,
2013-01-30 19:10:00,54.2,49.2,29.28,SW,225,0.0,0.0,83,0.00,,,0.19,WUHU216HW,2013-01-31 00:10:00,
2013-01-30 19:15:00,54.2,49.2,29.28,SW,225,0.0,0.0,83,0.00,,,0.19,WUHU216HW,2013-01-31 00:15:00,
2013-01-30 19:20:00,54.0,49.2,29.27,South,180,0.0,0.0,84,0.00,,,0.19,WUHU216HW,2013-01-31 00:20:00,
2013-01-30 19:25:00,54.0,49.2,29.27,SW,225,0.0,0.0,84,0.00,,,0.19,WUHU216HW,2013-01-31 00:25:00,
2013-01-30 19:30:00,54.2,49.4,29.26,WSW,248,0.0,0.0,84,0.00,,,0.19,WUHU216HW,2013-01-31 00:30:00,
2013-01-30 19:35:00,54.2,49.4,29.26,SE,135,0.0,0.0,84,0.00,,,0.19,WUHU216HW,2013-01-31 00:35:00,
2013-01-30 19:40:00,54.2,49.4,29.26,SE,135,0.0,0.0,84,0.00,,,0.19,WUHU216HW,2013-01-31 00:40:00,
2013-01-30 20:00:00,54.5,49.4,29.25,SSW,203,0.0,0.0,83,0.00,,,0.19,WUHU216HW,2013-01-31 01:00:00,
2013-01-30 20:05:00,54.5,49.4,29.24,SSW,203,0.0,0.0,83,0.00,,,0.19,WUHU216HW,2013-01-31 01:05:00,
2013-01-30 20:10:00,54.5,49.4,29.25,WSW,248,0.0,0.0,83,0.00,,,0.19,WUHU216HW,2013-01-31 01:10:00,
2013-01-30 20:15:00,54.5,49.4,29.24,SSW,203,0.0,0.0,83,0.00,,,0.19,WUHU216HW,2013-01-31 01:15:00,
2013-01-30 20:20:00,54.5,49.4,29.24,SSW,203,0.0,0.0,83,0.00,,,0.19,WUHU216HW,2013-01-31 01:20:00,
2013-01-30 20:25:00,54.7,49.6,29.23,SW,225,0.0,0.0,83,0.00,,,0.19,WUHU216HW,2013-01-31 01:25:00,
2013-01-30 20:30:00,54.7,49.3,29.24,SSW,203,0.0,0.0,82,0.00,,,0.19,WUHU216HW,2013-01-31 01:30:00,
2013-01-30 20:35:00,54.7,49.3,29.24,South,180,0.0,0.0,82,0.00,,,0.19,WUHU216HW,2013-01-31 01:35:00,
2013-01-30 20:40:00,54.9,49.5,29.24,SW,225,0.0,0.0,82,0.00,,,0.19,WUHU216HW,2013-01-31 01:40:00,
2013-01-30 20:45:00,54.9,49.5,29.23,SSW,203,0.0,0.0,82,0.00,,,0.19,WUHU216HW,2013-01-31 01:45:00,
2013-01-30 20:50:00,54.9,49.5,29.23,SSE,158,0.0,0.0,82,0.00,,,0.19,WUHU216HW,2013-01-31 01:50:00,
2013-01-30 20:55:00,54.9,49.5,29.22,ESE,113,0.0,0.0,82,0.00,,,0.19,WUHU216HW,2013-01-31 01:55:00,
2013-01-30 21:00:00,54.7,49.3,29.22,SSW,203,0.0,0.0,82,0.00,,,0.19,WUHU216HW,2013-01-31 02:00:00,
2013-01-30 21:05:00,54.7,49.3,29.22,WSW,248,0.0,0.0,82,0.00,,,0.19,WUHU216HW,2013-01-31 02:05:00,
2013-01-30 21:10:00,54.5,49.1,29.22,SSW,203,0.0,0.0,82,0.00,,,0.19,WUHU216HW,2013-01-31 02:10:00,
2013-01-30 21:15:00,54.5,49.1,29.21,WSW,248,0.0,0.0,82,0.00,,,0.19,WUHU216HW,2013-01-31 02:15:00,
2013-01-30 21:20:00,54.4,49.0,29.21,SSW,203,0.0,0.0,82,0.00,,,0.19,WUHU216HW,2013-01-31 02:20:00,
2013-01-30 21:25:00,54.2,48.8,29.20,SW,225,0.0,0.0,82,0.00,,,0.19,WUHU216HW,2013-01-31 02:25:00,
2013-01-30 21:30:00,54.0,49.0,29.19,SW,225,0.0,0.0,83,0.00,,,0.19,WUHU216HW,2013-01-31 02:30:00,
2013-01-30 21:35:00,53.8,48.8,29.20,SW,225,0.0,0.0,83,0.00,,,0.19,WUHU216HW,2013-01-31 02:35:00,
2013-01-30 21:40:00,53.6,48.6,29.20,SW,225,0.0,0.0,83,0.00,,,0.19,WUHU216HW,2013-01-31 02:40:00,
2013-01-30 21:45:00,53.5,48.8,29.18,SE,135,0.0,0.0,84,0.00,,,0.19,WUHU216HW,2013-01-31 02:45:00,
2013-01-30 21:50:00,53.3,48.6,29.17,South,180,0.0,0.0,84,0.00,,,0.19,WUHU216HW,2013-01-31 02:50:00,
2013-01-30 21:55:00,53.1,48.7,29.16,SW,225,0.0,0.0,85,0.00,,,0.19,WUHU216HW,2013-01-31 02:55:00,
2013-01-30 22:00:00,52.9,48.5,29.16,SW,225,0.0,0.0,85,0.01,,,0.19,WUHU216HW,2013-01-31 03:00:00,
2013-01-30 22:05:00,52.7,48.6,29.16,SSW,203,0.0,0.0,86,0.01,,,0.19,WUHU216HW,2013-01-31 03:05:00,
2013-01-30 22:10:00,52.7,48.6,29.16,SW,225,0.0,0.0,86,0.01,,,0.19,WUHU216HW,2013-01-31 03:10:00,
2013-01-30 22:15:00,52.9,48.8,29.16,WSW,248,0.0,0.0,86,0.01,,,0.19,WUHU216HW,2013-01-31 03:15:00,
2013-01-30 22:20:00,53.1,49.0,29.15,SSE,158,0.0,0.0,86,0.01,,,0.19,WUHU216HW,2013-01-31 03:20:00,
2013-01-30 22:25:00,53.3,49.1,29.15,SSW,203,0.0,0.0,86,0.01,,,0.19,WUHU216HW,2013-01-31 03:25:00,
2013-01-30 22:30:00,53.3,49.1,29.13,SSW,203,0.0,0.0,86,0.01,,,0.19,WUHU216HW,2013-01-31 03:30:00,
2013-01-30 22:35:00,53.3,49.1,29.13,WSW,248,0.0,0.0,86,0.02,,,0.21,WUHU216HW,2013-01-31 03:35:00,
2013-01-30 22:40:00,53.1,49.3,29.13,South,180,0.0,0.0,87,0.02,,,0.21,WUHU216HW,2013-01-31 03:40:00,
2013-01-30 22:45:00,53.1,49.3,29.13,South,180,0.0,0.0,87,0.04,,,0.22,WUHU216HW,2013-01-31 03:45:00,
2013-01-30 22:50:00,53.1,49.6,29.14,SSW,203,0.0,0.0,88,0.06,,,0.24,WUHU216HW,2013-01-31 03:50:00,
2013-01-30 22:55:00,53.1,49.6,29.14,WSW,248,0.0,0.0,88,0.07,,,0.26,WUHU216HW,2013-01-31 03:55:00,
2013-01-30 23:00:00,52.9,49.8,29.14,SW,225,0.0,0.0,89,0.08,,,0.28,WUHU216HW,2013-01-31 04:00:00,
2013-01-30 23:05:00,53.1,50.2,29.15,SW,225,0.0,0.0,90,0.11,,,0.31,WUHU216HW,2013-01-31 04:05:00,
2013-01-30 23:10:00,52.9,50.3,29.12,WSW,248,0.0,0.0,91,0.14,,,0.33,WUHU216HW,2013-01-31 04:10:00,
2013-01-30 23:15:00,52.6,49.7,29.12,SW,225,0.0,0.0,90,0.15,,,0.35,WUHU216HW,2013-01-31 04:15:00,
2013-01-30 23:20:00,52.6,49.7,29.12,WSW,248,0.0,0.0,90,0.18,,,0.37,WUHU216HW,2013-01-31 04:20:00,
2013-01-30 23:25:00,52.4,49.8,29.11,SW,225,0.0,0.0,91,0.19,,,0.39,WUHU216HW,2013-01-31 04:25:00,
2013-01-30 23:30:00,52.6,50.0,29.12,West,270,0.0,0.0,91,0.21,,,0.41,WUHU216HW,2013-01-31 04:30:00,
2013-01-30 23:35:00,52.2,49.6,29.11,West,270,0.0,0.0,91,0.22,,,0.42,WUHU216HW,2013-01-31 04:35:00,
2013-01-30 23:40:00,51.8,49.2,29.11,SSW,203,0.0,0.0,91,0.23,,,0.43,WUHU216HW,2013-01-31 04:40:00,
2013-01-30 23:45:00,51.7,48.8,29.11,SW,225,0.0,0.0,90,0.20,,,0.44,WUHU216HW,2013-01-31 04:45:00,
2013-01-30 23:50:00,51.5,48.6,29.11,SW,225,0.0,0.0,90,0.19,,,0.45,WUHU216HW,2013-01-31 04:50:00,
2013-01-30 23:55:00,51.5,48.6,29.11,WSW,248,0.0,0.0,90,0.18,,,0.45,WUHU216HW,2013-01-31 04:55:00,